Charlottetown, Prince Edward Island

9:23 AM ADT on August 22, 2017 (GMT -0300)
Charlottetown

Weather History for CYYG - July, 2013

Change the Weather History Date:

Saturday, July 6, 2013

  Actual Average Record
Temperature  
Mean Temperature 77 °F -  
Max Temperature 85 °F 74 °F 85 °F (2013)
Min Temperature 69 °F 56 °F 51 °F (1999)
Cooling Degree Days 12    
Growing Degree Days 27 (Base 50)    
Moisture  
Dew Point 66 °F    
Average Humidity 68    
Maximum Humidity 88    
Minimum Humidity 50    
Precipitation  
Precipitation 0.00 in 0.11 in - ()
Sea Level Pressure  
Sea Level Pressure 29.85 in    
Wind  
Wind Speed 8 mph ()    
Max Wind Speed 14 mph    
Max Gust Speed -    
Visibility 15.0 miles    
Events      
Averages and records for this station are not official NWS values.
T = Trace of Precipitation, MM = Missing Value Source: Averaged Metar Reports

Daily Weather History Graph

Daily Weather History Graph

Search for Another Location

Airport or City:

Trip Planner

Search our weather history database for the weather conditions in past years. The results will help you decide how hot, cold, wet, or windy it might be!

Date:

Astronomy

Jul. 06, 2013 Rise Set
Actual Time 5:27 AM ADT 9:06 PM ADT
Civil Twilight 4:49 AM ADT 9:44 PM ADT
Nautical Twilight 3:58 AM ADT 10:35 PM ADT
Astronomical Twilight 2:48 AM ADT 11:44 PM ADT
Moon 4:13 AM ADT (7/6) 7:41 PM ADT (7/6)
Length of Visible Light 16h 54m
Length of Day
15h 38m
Waning Crescent, 3% of the Moon is Illuminated
Jul 6
Waning Crescent
Jul 8
New
Jul 16
First Quarter
Jul 22
Full
Jul 29
Last Quarter

Hourly Weather History & Observations

Time (ADT) Temp. Heat Index Dew Point Humidity Pressure Visibility Wind Dir Wind Speed Gust Speed Precip Events Conditions
12:00 AM 75.2 °F - 60.8 °F 61% 29.88 in 15.0 mi West 10.4 mph - N/A   Clear
1:00 AM 73.4 °F - 60.8 °F 65% 29.88 in 15.0 mi WSW 9.2 mph - N/A   Clear
2:00 AM 73.4 °F - 62.6 °F 69% 29.88 in 15.0 mi WSW 8.1 mph - N/A   Clear
3:00 AM 74 °F - 64 °F 65% 29.88 in 15 mi West 10.4 mph - -   Haze
3:00 AM 73.4 °F - 64.4 °F 73% 29.88 in 15.0 mi West 10.4 mph - N/A   Clear
4:00 AM 71.6 °F - 64.4 °F 78% 29.89 in 15.0 mi West 9.2 mph - N/A   Clear
5:00 AM 71.6 °F - 64.4 °F 78% 29.90 in 15.0 mi West 9.2 mph - N/A   Partly Cloudy
6:00 AM 69.8 °F - 64.4 °F 83% 29.89 in 15.0 mi West 6.9 mph - N/A   Partly Cloudy
7:00 AM 71.6 °F - 64.4 °F 78% 29.89 in 15.0 mi West 8.1 mph - N/A   Scattered Clouds
8:00 AM 75.2 °F - 66.2 °F 73% 29.89 in 15.0 mi SW 6.9 mph - N/A   Scattered Clouds
9:00 AM 77 °F - 67 °F 65% 29.89 in 15 mi West 6.9 mph - -   Clear
9:00 AM 77.0 °F - 68.0 °F 74% 29.89 in 15.0 mi West 5.8 mph - N/A   Mostly Cloudy
10:00 AM 78.8 °F - 66.2 °F 65% 29.88 in 15.0 mi West 5.8 mph - N/A   Mostly Cloudy
11:00 AM 80.6 °F 83.2 °F 68.0 °F 65% 29.88 in 15.0 mi West 9.2 mph - N/A   Mostly Cloudy
12:00 PM 82.4 °F 84.6 °F 66.2 °F 58% 29.87 in 15.0 mi West 9.2 mph - N/A   Mostly Cloudy
1:00 PM 82.4 °F 85.4 °F 68.0 °F 62% 29.86 in 15.0 mi WSW 11.5 mph - N/A   Mostly Cloudy
2:00 PM 82.4 °F 85.4 °F 68.0 °F 62% 29.85 in 15.0 mi WSW 9.2 mph - N/A   Mostly Cloudy
3:00 PM 84 °F - 68 °F 50% 29.83 in 15 mi SW 11.5 mph - -   Clear
3:00 PM 84.2 °F 87.3 °F 68.0 °F 58% 29.83 in 15.0 mi SW 13.8 mph - N/A   Mostly Cloudy
4:00 PM 84.2 °F 87.3 °F 68.0 °F 58% 29.82 in 15.0 mi WSW 11.5 mph - N/A   Mostly Cloudy
5:00 PM 84.2 °F 87.3 °F 68.0 °F 58% 29.81 in 15.0 mi WSW 10.4 mph - N/A   Mostly Cloudy
6:00 PM 82.4 °F 85.4 °F 68.0 °F 62% 29.80 in 15.0 mi WSW 9.2 mph - N/A   Mostly Cloudy
7:00 PM 78.8 °F - 68.0 °F 69% 29.78 in 15.0 mi WSW 9.2 mph - N/A   Overcast
8:00 PM 78.8 °F - 68.0 °F 69% 29.79 in 15.0 mi WSW 8.1 mph - N/A   Overcast
9:00 PM 76 °F - 68 °F 70% 29.78 in 14 mi SW 8.1 mph - -   Scattered Clouds
9:00 PM 75.2 °F - 68.0 °F 78% 29.78 in 15.0 mi SW 8.1 mph - N/A   Scattered Clouds
10:00 PM 73.4 °F - 68.0 °F 83% 29.79 in 15.0 mi SW 8.1 mph - N/A   Partly Cloudy
11:00 PM 71.6 °F - 68.0 °F 88% 29.79 in 15.0 mi SW 6.9 mph - N/A   Partly Cloudy